| time (UTC) | temp F | wind direction | speed MPH | gust MPH | rain 1hr in | rain 24hr in | rain mn in | humidity % | barometer mb |
| 20260507020513 | 66 | 280 | 0.0 | 3.0 | 0.00 | 0.00 | 0.00 | 77 | 1012.4 |
| 20260507020012 | 66 | 101 | 0.0 | 3.0 | 0.00 | 0.00 | 0.00 | 77 | 1012.4 |
| 20260507015513 | 66 | 114 | 1.0 | 3.0 | 0.00 | 0.00 | 0.00 | 77 | 1012.3 |
| 20260507015012 | 66 | 16 | 0.0 | 3.0 | 0.00 | 0.00 | 0.00 | 77 | 1012.2 |
| 20260507014512 | 66 | 360 | 1.0 | 6.0 | 0.00 | 0.00 | 0.00 | 77 | 1012.0 |
| 20260507014012 | 66 | 319 | 3.0 | 6.0 | 0.00 | 0.00 | 0.00 | 77 | 1011.9 |
| 20260507013512 | 66 | 44 | 1.0 | 4.0 | 0.00 | 0.00 | 0.00 | 77 | 1011.9 |
| 20260507013012 | 66 | 342 | 4.0 | 4.0 | 0.00 | 0.00 | 0.00 | 77 | 1011.8 |
| 20260507012512 | 66 | 344 | 3.0 | 6.0 | 0.00 | 0.00 | 0.00 | 77 | 1011.6 |
| 20260507012012 | 66 | 342 | 3.0 | 6.0 | 0.00 | 0.00 | 0.00 | 77 | 1011.8 |
| 20260507011012 | 66 | 327 | 1.0 | 6.0 | 0.00 | 0.00 | 0.00 | 76 | 1011.7 |
| 20260507010512 | 66 | 355 | 6.0 | 8.0 | 0.00 | 0.00 | 0.00 | 76 | 1011.6 |
| 20260507010012 | 66 | 329 | 5.0 | 8.0 | 0.00 | 0.00 | 0.00 | 76 | 1011.4 |
| 20260507005512 | 66 | 330 | 4.0 | 6.0 | 0.00 | 0.00 | 0.00 | 76 | 1011.4 |
| 20260507005012 | 66 | 32 | 0.0 | 5.0 | 0.00 | 0.00 | 0.00 | 76 | 1011.3 |
| 20260507004512 | 66 | 13 | 1.0 | 9.0 | 0.00 | 0.00 | 0.00 | 76 | 1011.3 |
| 20260507004012 | 66 | 315 | 3.0 | 9.0 | 0.00 | 0.00 | 0.00 | 76 | 1011.0 |
| 20260507003512 | 66 | 331 | 3.0 | 5.0 | 0.00 | 0.00 | 0.00 | 76 | 1011.2 |
| 20260507003012 | 66 | 127 | 1.0 | 6.0 | 0.00 | 0.00 | 0.00 | 76 | 1011.0 |
| 20260507002512 | 66 | 285 | 3.0 | 8.0 | 0.00 | 0.00 | 0.00 | 76 | 1011.0 |
| 20260507002012 | 66 | 60 | 4.0 | 8.0 | 0.00 | 0.00 | 0.00 | 76 | 1011.3 |
| 20260507001511 | 66 | 338 | 1.0 | 6.0 | 0.00 | 0.00 | 0.00 | 76 | 1011.0 |
| 20260507001011 | 66 | 205 | 3.0 | 6.0 | 0.00 | 0.00 | 0.00 | 76 | 1010.9 |
| 20260507000512 | 66 | 5 | 2.0 | 6.0 | 0.00 | 0.00 | 0.00 | 76 | 1011.0 |
| 20260507000012 | 66 | 321 | 4.0 | 6.0 | 0.00 | 0.00 | 0.00 | 76 | 1010.9 |
| 20260506235511 | 66 | 28 | 2.0 | 9.0 | 0.00 | 0.00 | 0.00 | 76 | 1010.8 |
| 20260506235011 | 66 | 336 | 4.0 | 9.0 | 0.00 | 0.00 | 0.00 | 75 | 1010.9 |
| 20260506234511 | 66 | 119 | 4.0 | 9.0 | 0.00 | 0.00 | 0.00 | 75 | 1011.0 |
| 20260506234011 | 66 | 107 | 2.0 | 9.0 | 0.00 | 0.00 | 0.00 | 75 | 1010.9 |
| 20260506232511 | 67 | 39 | 2.0 | 12.0 | 0.00 | 0.00 | 0.00 | 74 | 1010.6 |
| 20260506232011 | 67 | 44 | 2.0 | 12.0 | 0.00 | 0.00 | 0.00 | 74 | 1010.6 |
| 20260506230511 | 67 | 333 | 6.0 | 9.0 | 0.00 | 0.00 | 0.00 | 73 | 1010.6 |
| 20260506230011 | 68 | 333 | 2.0 | 9.0 | 0.00 | 0.00 | 0.00 | 73 | 1010.7 |
| 20260506225511 | 68 | 30 | 2.0 | 8.0 | 0.00 | 0.00 | 0.00 | 73 | 1010.7 |
| 20260506225011 | 69 | 336 | 8.0 | 8.0 | 0.00 | 0.00 | 0.00 | 72 | 1010.5 |
| 20260506224511 | 69 | 360 | 5.0 | 12.0 | 0.00 | 0.00 | 0.00 | 72 | 1010.4 |
| 20260506224011 | 69 | 355 | 9.0 | 12.0 | 0.00 | 0.00 | 0.00 | 72 | 1010.5 |
| 20260506223511 | 69 | 336 | 3.0 | 12.0 | 0.00 | 0.00 | 0.00 | 71 | 1010.4 |
| 20260506222511 | 71 | 128 | 4.0 | 8.0 | 0.00 | 0.00 | 0.00 | 71 | 1010.2 |
| 20260506222011 | 71 | 344 | 4.0 | 8.0 | 0.00 | 0.00 | 0.00 | 71 | 1010.2 |
| 20260506221511 | 71 | 111 | 1.0 | 12.0 | 0.00 | 0.00 | 0.00 | 70 | 1010.3 |
| 20260506221010 | 71 | 253 | 7.0 | 12.0 | 0.00 | 0.00 | 0.00 | 71 | 1010.1 |
| 20260506215510 | 71 | 54 | 3.0 | 5.0 | 0.00 | 0.00 | 0.00 | 71 | 1010.1 |
| 20260506215011 | 72 | 342 | 4.0 | 8.0 | 0.00 | 0.00 | 0.00 | 70 | 1010.2 |
| 20260506214510 | 72 | 167 | 6.0 | 8.0 | 0.00 | 0.00 | 0.00 | 70 | 1010.2 |
| 20260506214010 | 73 | 121 | 1.0 | 8.0 | 0.00 | 0.00 | 0.00 | 69 | 1010.1 |
| 20260506213511 | 74 | 329 | 2.0 | 9.0 | 0.00 | 0.00 | 0.00 | 69 | 1010.0 |
| 20260506213010 | 74 | 46 | 0.0 | 13.0 | 0.00 | 0.00 | 0.00 | 69 | 1009.9 |
| 20260506212010 | 75 | 355 | 1.0 | 11.0 | 0.00 | 0.00 | 0.00 | 70 | 1009.9 |
| 20260506211511 | 75 | 333 | 4.0 | 11.0 | 0.00 | 0.00 | 0.00 | 70 | 1009.7 |
| 20260506211010 | 75 | 200 | 1.0 | 12.0 | 0.00 | 0.00 | 0.00 | 70 | 1009.8 |
| 20260506210510 | 75 | 338 | 2.0 | 12.0 | 0.00 | 0.00 | 0.00 | 71 | 1009.7 |
| 20260506210010 | 75 | 114 | 6.0 | 9.0 | 0.00 | 0.00 | 0.00 | 71 | 1009.9 |
| 20260506205510 | 75 | 360 | 4.0 | 10.0 | 0.00 | 0.00 | 0.00 | 72 | 1010.0 |
| 20260506205010 | 75 | 348 | 3.0 | 10.0 | 0.00 | 0.00 | 0.00 | 73 | 1010.1 |
| 20260506204510 | 74 | 5 | 9.0 | 9.0 | 0.00 | 0.00 | 0.00 | 73 | 1010.3 |
| 20260506204010 | 74 | 55 | 3.0 | 9.0 | 0.00 | 0.00 | 0.00 | 74 | 1010.3 |
| 20260506203510 | 74 | 350 | 4.0 | 8.0 | 0.00 | 0.00 | 0.00 | 74 | 1010.3 |
| 20260506202509 | 75 | 337 | 5.0 | 13.0 | 0.00 | 0.00 | 0.00 | 73 | 1010.3 |
| 20260506201510 | 77 | 321 | 5.0 | 14.0 | 0.00 | 0.00 | 0.00 | 72 | 1010.0 |
| 20260506200509 | 78 | 311 | 2.0 | 8.0 | 0.00 | 0.00 | 0.00 | 73 | 1009.6 |
| 20260506200009 | 79 | 340 | 2.0 | 8.0 | 0.00 | 0.00 | 0.00 | 73 | 1009.6 |
| 20260506195510 | 79 | 169 | 2.0 | 4.0 | 0.00 | 0.00 | 0.00 | 73 | 1009.7 |
| 20260506195009 | 79 | 110 | 4.0 | 4.0 | 0.00 | 0.00 | 0.00 | 73 | 1009.7 |
| 20260506194509 | 79 | 185 | 0.0 | 3.0 | 0.00 | 0.00 | 0.00 | 73 | 1009.7 |
| 20260506194009 | 79 | 103 | 2.0 | 4.0 | 0.00 | 0.00 | 0.00 | 74 | 1009.7 |
| 20260506193509 | 79 | 304 | 2.0 | 4.0 | 0.00 | 0.00 | 0.00 | 74 | 1009.7 |
| 20260506193009 | 79 | 130 | 1.0 | 4.0 | 0.00 | 0.00 | 0.00 | 74 | 1009.6 |
| 20260506192509 | 79 | 103 | 2.0 | 4.0 | 0.00 | 0.00 | 0.00 | 74 | 1009.7 |
| 20260506192009 | 79 | 331 | 1.0 | 4.0 | 0.00 | 0.00 | 0.00 | 75 | 1009.8 |
| 20260506191509 | 78 | 36 | 2.0 | 3.0 | 0.00 | 0.00 | 0.00 | 76 | 1009.7 |
| 20260506190509 | 77 | 9 | 7.0 | 9.0 | 0.00 | 0.00 | 0.00 | 76 | 1009.9 |
| 20260506185508 | 77 | 112 | 2.0 | 5.0 | 0.00 | 0.00 | 0.00 | 76 | 1009.8 |
| 20260506185008 | 77 | 201 | 2.0 | 5.0 | 0.00 | 0.00 | 0.00 | 76 | 1009.7 |
| 20260506184509 | 77 | 128 | 3.0 | 3.0 | 0.00 | 0.00 | 0.00 | 77 | 1009.8 |
| 20260506184009 | 76 | 304 | 2.0 | 3.0 | 0.00 | 0.00 | 0.00 | 77 | 1009.8 |
| 20260506183508 | 76 | 20 | 1.0 | 8.0 | 0.00 | 0.00 | 0.00 | 77 | 1009.9 |
| 20260506183009 | 76 | 338 | 2.0 | 8.0 | 0.00 | 0.00 | 0.00 | 76 | 1010.0 |
| 20260506182508 | 75 | 157 | 2.0 | 3.0 | 0.00 | 0.00 | 0.00 | 77 | 1010.0 |
| 20260506182008 | 75 | 329 | 1.0 | 3.0 | 0.00 | 0.00 | 0.00 | 77 | 1010.1 |
| 20260506181508 | 75 | 331 | 3.0 | 3.0 | 0.00 | 0.00 | 0.00 | 78 | 1009.9 |
| 20260506180008 | 73 | 36 | 2.0 | 8.0 | 0.00 | 0.00 | 0.00 | 79 | 1009.9 |
| 20260506175508 | 73 | 351 | 3.0 | 8.0 | 0.00 | 0.00 | 0.00 | 79 | 1010.0 |
| 20260506175008 | 72 | 110 | 1.0 | 4.0 | 0.00 | 0.00 | 0.00 | 79 | 1009.9 |
| 20260506174508 | 72 | 340 | 3.0 | 5.0 | 0.00 | 0.00 | 0.00 | 79 | 1010.0 |
| 20260506174008 | 72 | 355 | 5.0 | 5.0 | 0.00 | 0.00 | 0.00 | 79 | 1010.0 |
| 20260506173008 | 72 | 129 | 1.0 | 4.0 | 0.00 | 0.00 | 0.00 | 79 | 1010.1 |
| 20260506172508 | 71 | 360 | 2.0 | 4.0 | 0.00 | 0.00 | 0.00 | 80 | 1010.3 |
| 20260506172008 | 71 | 173 | 1.0 | 5.0 | 0.00 | 0.00 | 0.00 | 80 | 1010.2 |
| 20260506171508 | 70 | 281 | 1.0 | 7.0 | 0.00 | 0.00 | 0.00 | 80 | 1010.2 |
| 20260506171007 | 70 | 130 | 4.0 | 7.0 | 0.00 | 0.00 | 0.00 | 80 | 1010.3 |
| 20260506170507 | 70 | 154 | 0.0 | 4.0 | 0.00 | 0.00 | 0.00 | 81 | 1010.3 |
| 20260506170037 | 69 | 115 | 2.0 | 5.0 | 0.00 | 0.00 | 0.00 | 81 | 1010.3 |
| 20260506165537 | 68 | 161 | 2.0 | 5.0 | 0.00 | 0.00 | 0.00 | 82 | 1010.4 |
| 20260506165037 | 68 | 159 | 4.0 | 11.0 | 0.00 | 0.00 | 0.00 | 81 | 1010.4 |
| 20260506164037 | 68 | 165 | 2.0 | 9.0 | 0.00 | 0.00 | 0.00 | 81 | 1011.0 |
| 20260506163537 | 68 | 38 | 3.0 | 9.0 | 0.00 | 0.00 | 0.00 | 81 | 1011.2 |
| 20260506163037 | 69 | 296 | 4.0 | 6.0 | 0.00 | 0.00 | 0.00 | 81 | 1011.2 |
| 20260506162537 | 70 | 355 | 2.0 | 8.0 | 0.00 | 0.00 | 0.00 | 80 | 1011.3 |
| 20260506162037 | 71 | 360 | 2.0 | 8.0 | 0.00 | 0.00 | 0.00 | 79 | 1011.3 |
| 20260506161537 | 73 | 311 | 2.0 | 7.0 | 0.00 | 0.00 | 0.00 | 79 | 1011.3 |
| 20260506161037 | 76 | 351 | 1.0 | 6.0 | 0.00 | 0.00 | 0.00 | 79 | 1011.1 |
| 20260506160537 | 78 | 59 | 3.0 | 3.0 | 0.00 | 0.00 | 0.00 | 79 | 1011.0 |
| 20260506155537 | 79 | 127 | 0.0 | 1.0 | 0.00 | 0.00 | 0.00 | 81 | 1010.6 |
| 20260506154537 | 79 | 108 | 0.0 | 2.0 | 0.00 | 0.00 | 0.00 | 81 | 1010.4 |
| 20260506154037 | 79 | 91 | 0.0 | 2.0 | 0.00 | 0.00 | 0.00 | 81 | 1010.3 |
| 20260506152536 | 78 | 129 | 0.0 | 2.0 | 0.00 | 0.00 | 0.00 | 81 | 1009.7 |
| 20260506152037 | 78 | 129 | 1.0 | 2.0 | 0.00 | 0.00 | 0.00 | 81 | 1009.7 |
| 20260506151536 | 78 | 129 | 0.0 | 1.0 | 0.00 | 0.00 | 0.00 | 81 | 1009.7 |
| 20260506151037 | 78 | 129 | 0.0 | 1.0 | 0.00 | 0.00 | 0.00 | 81 | 1009.5 |
| 20260506150036 | 78 | 105 | 1.0 | 2.0 | 0.00 | 0.00 | 0.00 | 81 | 1009.4 |
| 20260506145037 | 78 | 128 | 0.0 | 2.0 | 0.00 | 0.00 | 0.00 | 81 | 1009.1 |
| 20260506144536 | 78 | 128 | 1.0 | 4.0 | 0.00 | 0.00 | 0.00 | 81 | 1009.1 |
| 20260506144036 | 78 | 132 | 1.0 | 4.0 | 0.00 | 0.00 | 0.00 | 81 | 1009.0 |
| 20260506143536 | 78 | 99 | 1.0 | 1.0 | 0.00 | 0.00 | 0.00 | 81 | 1008.9 |
| 20260506143036 | 77 | 119 | 0.0 | 2.0 | 0.00 | 0.00 | 0.00 | 81 | 1008.8 |
| 20260506141536 | 77 | 159 | 0.0 | 0.0 | 0.00 | 0.00 | 0.00 | 81 | 1008.9 |
| 20260506140536 | 77 | 159 | 0.0 | 0.0 | 0.00 | 0.00 | 0.00 | 81 | 1009.1 |
| 20260506140036 | 77 | 159 | 0.0 | 0.0 | 0.00 | 0.00 | 0.00 | 81 | 1008.9 |
| 20260506135036 | 77 | 159 | 0.0 | 0.0 | 0.00 | 0.00 | 0.00 | 81 | 1008.3 |
| 20260506134536 | 77 | 159 | 0.0 | 0.0 | 0.00 | 0.00 | 0.00 | 81 | 1008.3 |
| 20260506134037 | 77 | 210 | 0.0 | 0.0 | 0.00 | 0.00 | 0.00 | 81 | 1008.3 |
| 20260506133536 | 77 | 101 | 0.0 | 4.0 | 0.00 | 0.00 | 0.00 | 81 | 1008.2 |
| 20260506133036 | 77 | 215 | 1.0 | 4.0 | 0.00 | 0.00 | 0.00 | 81 | 1008.1 |
| 20260506132535 | 77 | 144 | 2.0 | 5.0 | 0.00 | 0.00 | 0.00 | 81 | 1008.2 |
| 20260506132036 | 77 | 178 | 2.0 | 5.0 | 0.00 | 0.00 | 0.00 | 81 | 1008.2 |
| 20260506131536 | 77 | 117 | 0.0 | 3.0 | 0.00 | 0.00 | 0.00 | 81 | 1008.2 |
| 20260506131036 | 77 | 114 | 3.0 | 3.0 | 0.00 | 0.00 | 0.00 | 81 | 1008.1 |
| 20260506130036 | 76 | 138 | 0.0 | 4.0 | 0.00 | 0.00 | 0.00 | 81 | 1008.0 |
| 20260506125535 | 76 | 107 | 2.0 | 4.0 | 0.00 | 0.00 | 0.00 | 81 | 1008.0 |
| 20260506125035 | 76 | 108 | 2.0 | 3.0 | 0.00 | 0.00 | 0.00 | 81 | 1008.0 |
| 20260506124036 | 76 | 128 | 2.0 | 4.0 | 0.00 | 0.00 | 0.00 | 82 | 1007.9 |
| 20260506123535 | 76 | 134 | 1.0 | 2.0 | 0.00 | 0.00 | 0.00 | 82 | 1007.9 |
| 20260506123035 | 76 | 122 | 0.0 | 2.0 | 0.00 | 0.00 | 0.00 | 82 | 1008.0 |
| 20260506122535 | 76 | 122 | 0.0 | 2.0 | 0.00 | 0.00 | 0.00 | 82 | 1008.0 |
| 20260506122035 | 76 | 122 | 0.0 | 1.0 | 0.00 | 0.00 | 0.00 | 81 | 1008.0 |
| 20260506121535 | 76 | 155 | 1.0 | 1.0 | 0.00 | 0.00 | 0.00 | 81 | 1008.0 |
| 20260506121035 | 76 | 162 | 0.0 | 1.0 | 0.00 | 0.00 | 0.00 | 81 | 1007.9 |
| 20260506120535 | 76 | 162 | 1.0 | 1.0 | 0.00 | 0.00 | 0.00 | 81 | 1007.9 |
| 20260506120035 | 76 | 124 | 0.0 | 3.0 | 0.00 | 0.00 | 0.00 | 81 | 1007.8 |
| 20260506115535 | 76 | 112 | 2.0 | 3.0 | 0.00 | 0.00 | 0.00 | 81 | 1007.8 |
| 20260506115035 | 76 | 129 | 0.0 | 0.0 | 0.00 | 0.00 | 0.00 | 81 | 1007.8 |
| 20260506114535 | 76 | 176 | 0.0 | 2.0 | 0.00 | 0.00 | 0.00 | 81 | 1007.8 |
| 20260506114034 | 76 | 145 | 0.0 | 2.0 | 0.00 | 0.00 | 0.00 | 82 | 1007.8 |
| 20260506113534 | 76 | 179 | 0.0 | 3.0 | 0.00 | 0.00 | 0.00 | 82 | 1007.9 |
| 20260506112534 | 76 | 133 | 0.0 | 4.0 | 0.00 | 0.00 | 0.00 | 82 | 1007.8 |
| 20260506112034 | 76 | 157 | 0.0 | 1.0 | 0.00 | 0.00 | 0.00 | 82 | 1007.9 |
| 20260506111534 | 76 | 157 | 0.0 | 2.0 | 0.00 | 0.00 | 0.00 | 82 | 1007.9 |
| 20260506111034 | 76 | 157 | 0.0 | 3.0 | 0.00 | 0.00 | 0.00 | 82 | 1007.8 |
| 20260506110534 | 76 | 128 | 0.0 | 3.0 | 0.00 | 0.00 | 0.00 | 82 | 1007.8 |
| 20260506110034 | 76 | 156 | 2.0 | 3.0 | 0.00 | 0.00 | 0.00 | 82 | 1007.8 |
| 20260506105534 | 76 | 146 | 3.0 | 3.0 | 0.00 | 0.00 | 0.00 | 82 | 1007.8 |
| 20260506105033 | 76 | 132 | 0.0 | 1.0 | 0.00 | 0.00 | 0.00 | 82 | 1007.7 |
| 20260506104533 | 76 | 132 | 0.0 | 4.0 | 0.00 | 0.00 | 0.00 | 82 | 1007.7 |
| 20260506104033 | 76 | 148 | 0.0 | 4.0 | 0.00 | 0.00 | 0.00 | 82 | 1007.7 |
| 20260506103533 | 76 | 165 | 0.0 | 3.0 | 0.00 | 0.00 | 0.00 | 82 | 1007.5 |
| 20260506103034 | 76 | 226 | 3.0 | 3.0 | 0.00 | 0.00 | 0.00 | 82 | 1007.4 |
| 20260506102533 | 76 | 140 | 0.0 | 2.0 | 0.00 | 0.00 | 0.00 | 82 | 1007.4 |
| 20260506102034 | 76 | 148 | 0.0 | 2.0 | 0.00 | 0.00 | 0.00 | 82 | 1007.3 |
| 20260506101533 | 76 | 119 | 1.0 | 2.0 | 0.00 | 0.00 | 0.00 | 82 | 1007.3 |
| 20260506101033 | 76 | 128 | 1.0 | 3.0 | 0.00 | 0.00 | 0.00 | 82 | 1007.3 |
| 20260506095533 | 76 | 251 | 2.0 | 5.0 | 0.00 | 0.00 | 0.00 | 82 | 1007.1 |
| 20260506094533 | 76 | 182 | 1.0 | 4.0 | 0.00 | 0.00 | 0.00 | 82 | 1007.0 |
| 20260506094033 | 76 | 242 | 1.0 | 4.0 | 0.00 | 0.00 | 0.00 | 82 | 1006.9 |
| 20260506093533 | 76 | 195 | 2.0 | 4.0 | 0.00 | 0.00 | 0.00 | 82 | 1006.9 |
| 20260506093033 | 76 | 96 | 0.0 | 4.0 | 0.00 | 0.00 | 0.00 | 82 | 1006.8 |
| 20260506091533 | 76 | 88 | 3.0 | 5.0 | 0.00 | 0.00 | 0.00 | 82 | 1006.6 |
| 20260506091033 | 76 | 225 | 2.0 | 4.0 | 0.00 | 0.00 | 0.00 | 82 | 1006.6 |
| 20260506090533 | 76 | 213 | 0.0 | 8.0 | 0.00 | 0.00 | 0.00 | 82 | 1006.7 |
| 20260506090033 | 76 | 206 | 2.0 | 8.0 | 0.00 | 0.00 | 0.00 | 82 | 1006.7 |
| 20260506085032 | 76 | 234 | 2.0 | 4.0 | 0.00 | 0.00 | 0.00 | 82 | 1006.7 |
| 20260506084032 | 76 | 157 | 2.0 | 7.0 | 0.00 | 0.00 | 0.00 | 82 | 1006.7 |
| 20260506083532 | 76 | 176 | 3.0 | 7.0 | 0.00 | 0.00 | 0.00 | 82 | 1006.6 |
| 20260506083032 | 77 | 204 | 0.0 | 10.0 | 0.00 | 0.00 | 0.00 | 82 | 1006.7 |
| 20260506082532 | 77 | 90 | 6.0 | 10.0 | 0.00 | 0.00 | 0.00 | 82 | 1006.7 |
| 20260506082032 | 77 | 132 | 2.0 | 5.0 | 0.00 | 0.00 | 0.00 | 82 | 1006.7 |
| 20260506081532 | 77 | 124 | 3.0 | 9.0 | 0.00 | 0.00 | 0.00 | 82 | 1006.7 |
| 20260506081032 | 77 | 127 | 3.0 | 9.0 | 0.00 | 0.00 | 0.00 | 82 | 1006.7 |
| 20260506073031 | 77 | 112 | 8.0 | 8.0 | 0.00 | 0.00 | 0.00 | 82 | 1006.8 |
| 20260506072531 | 77 | 127 | 1.0 | 5.0 | 0.00 | 0.00 | 0.00 | 82 | 1007.1 |
| 20260506072031 | 77 | 227 | 4.0 | 10.0 | 0.00 | 0.00 | 0.00 | 82 | 1007.1 |
| 20260506071531 | 77 | 272 | 6.0 | 10.0 | 0.00 | 0.00 | 0.00 | 82 | 1007.1 |
| 20260506071031 | 77 | 79 | 1.0 | 10.0 | 0.00 | 0.00 | 0.00 | 82 | 1007.2 |
| 20260506070531 | 77 | 115 | 10.0 | 10.0 | 0.00 | 0.00 | 0.00 | 82 | 1007.2 |
| 20260506062031 | 77 | 140 | 2.0 | 6.0 | 0.00 | 0.00 | 0.00 | 82 | 1007.1 |
| 20260506061531 | 77 | 229 | 4.0 | 6.0 | 0.00 | 0.00 | 0.00 | 82 | 1007.1 |
| 20260506061031 | 77 | 165 | 2.0 | 5.0 | 0.00 | 0.00 | 0.00 | 82 | 1007.3 |
| 20260506050530 | 77 | 101 | 2.0 | 6.0 | 0.00 | 0.00 | 0.00 | 81 | 1007.3 |
| 20260506045030 | 78 | 254 | 1.0 | 3.0 | 0.00 | 0.00 | 0.00 | 81 | 1007.2 |
| 20260506044530 | 78 | 146 | 0.0 | 5.0 | 0.00 | 0.00 | 0.00 | 81 | 1007.2 |
| 20260506044030 | 78 | 126 | 3.0 | 5.0 | 0.00 | 0.00 | 0.00 | 81 | 1007.1 |
| 20260506043530 | 78 | 220 | 3.0 | 5.0 | 0.00 | 0.00 | 0.00 | 81 | 1007.2 |
| 20260506043030 | 78 | 159 | 2.0 | 8.0 | 0.00 | 0.00 | 0.00 | 81 | 1007.1 |
| 20260506042030 | 78 | 103 | 6.0 | 7.0 | 0.00 | 0.00 | 0.00 | 81 | 1007.0 |
| 20260506041530 | 78 | 192 | 1.0 | 7.0 | 0.00 | 0.00 | 0.00 | 81 | 1007.1 |
| 20260506041030 | 78 | 138 | 1.0 | 2.0 | 0.00 | 0.00 | 0.00 | 80 | 1007.1 |
| 20260506040030 | 78 | 146 | 1.0 | 2.0 | 0.00 | 0.00 | 0.00 | 80 | 1006.8 |
| 20260506035530 | 78 | 167 | 1.0 | 2.0 | 0.00 | 0.00 | 0.00 | 80 | 1006.7 |
| 20260506035029 | 78 | 110 | 0.0 | 3.0 | 0.00 | 0.00 | 0.00 | 80 | 1006.7 |
| 20260506034530 | 78 | 132 | 2.0 | 7.0 | 0.00 | 0.00 | 0.00 | 80 | 1006.7 |
| 20260506034029 | 78 | 135 | 4.0 | 7.0 | 0.00 | 0.00 | 0.00 | 80 | 1006.6 |
| 20260506033029 | 78 | 147 | 2.0 | 4.0 | 0.00 | 0.00 | 0.00 | 80 | 1006.5 |
| 20260506032529 | 79 | 113 | 3.0 | 4.0 | 0.00 | 0.00 | 0.00 | 80 | 1006.4 |
| 20260506032029 | 79 | 149 | 1.0 | 4.0 | 0.00 | 0.00 | 0.00 | 80 | 1006.4 |
| 20260506031029 | 79 | 209 | 1.0 | 4.0 | 0.00 | 0.00 | 0.00 | 79 | 1006.2 |
| 20260506030029 | 79 | 153 | 2.0 | 4.0 | 0.00 | 0.00 | 0.00 | 79 | 1006.0 |
| 20260506025529 | 79 | 93 | 1.0 | 4.0 | 0.00 | 0.00 | 0.00 | 79 | 1005.9 |
| 20260506025029 | 79 | 196 | 1.0 | 2.0 | 0.00 | 0.00 | 0.00 | 79 | 1005.8 |
| 20260506024029 | 80 | 107 | 2.0 | 3.0 | 0.00 | 0.00 | 0.00 | 78 | 1005.8 |
| 20260506023529 | 80 | 282 | 0.0 | 5.0 | 0.00 | 0.00 | 0.00 | 78 | 1005.6 |
| 20260506023029 | 80 | 177 | 1.0 | 7.0 | 0.00 | 0.00 | 0.00 | 78 | 1005.5 |
| 20260506022029 | 80 | 105 | 0.0 | 4.0 | 0.00 | 0.00 | 0.00 | 78 | 1005.2 |
| 20260506021529 | 81 | 165 | 4.0 | 4.0 | 0.00 | 0.00 | 0.00 | 77 | 1005.2 |
| 20260506021029 | 81 | 146 | 0.0 | 8.0 | 0.00 | 0.00 | 0.00 | 77 | 1005.2 |